Eau Claire, WI

7:06 AM CDT on September 26, 2017 (GMT -0500)
Chippewa Valley Regional

Weather History for KEAU - March, 2013

Change the Weather History Date:

Tuesday, March 12, 2013

  Actual Average Record
Temperature  
Mean Temperature 24 °F 30 °F  
Max Temperature 29 °F 39 °F 67 °F (1990)
Min Temperature 18 °F 20 °F -11 °F (1956)
Degree Days  
Heating Degree Days 41 36  
Month to date heating degree days 492 455  
Since 1 July heating degree days 6351 6475  
Cooling Degree Days 0 0  
Month to date cooling degree days 0 0  
Year to date cooling degree days 0 0  
Moisture  
Dew Point 15 °F    
Average Humidity 65    
Maximum Humidity 84    
Minimum Humidity 46    
Precipitation  
Precipitation T in 0.05 in 0.60 in (1901)
Month to date precipitation 1.46 0.52  
Year to date precipitation 4.03 2.22  
Snow  
Snow T in 0.30 in 6.00 in (1901)
Month to date snowfall 14.7 3.8  
Since 1 July snowfall 57.2 40.1  
Snow Depth 14.00 in    
Sea Level Pressure  
Sea Level Pressure 29.94 in    
Wind  
Wind Speed 11 mph (WNW)    
Max Wind Speed 18 mph    
Max Gust Speed 25 mph    
Visibility 9 miles    
Events Snow    
T = Trace of Precipitation, MM = Missing Value Source: NWS Daily Summary

Daily Weather History Graph

Daily Weather History Graph

Search for Another Location

Airport or City:

Trip Planner

Search our weather history database for the weather conditions in past years. The results will help you decide how hot, cold, wet, or windy it might be!

Date:

Astronomy

Mar. 12, 2013 Rise Set
Actual Time 7:23 AM CDT 7:08 PM CDT
Civil Twilight 6:54 AM CDT 7:37 PM CDT
Nautical Twilight 6:20 AM CDT 8:11 PM CDT
Astronomical Twilight 5:45 AM CDT 8:46 PM CDT
Moon 7:26 AM CDT (3/12) 8:29 PM CDT (3/12)
Length of Visible Light 12h 43m
Length of Day
11h 45m
New Moon, 1% of the Moon is Illuminated
Mar 12
New Moon
Mar 19
First Quarter
Mar 27
Full
Apr 2
Last Quarter
Apr 10
New

Hourly Weather History & Observations

Time (CDT) Temp. Windchill Dew Point Humidity Pressure Visibility Wind Dir Wind Speed Gust Speed Precip Events Conditions
12:56 AM 25.0 °F 15.5 °F 21.9 °F 88% 29.80 in 5.0 mi West 9.2 mph - 0.00 in Snow Light Snow
1:56 AM 24.1 °F 15.2 °F 19.9 °F 84% 29.81 in 10.0 mi West 8.1 mph - 0.00 in   Clear
2:56 AM 24.1 °F 15.2 °F 19.9 °F 84% 29.82 in 10.0 mi West 8.1 mph - N/A   Overcast
3:56 AM 23.0 °F 13.9 °F 18.0 °F 81% 29.82 in 10.0 mi West 8.1 mph - N/A   Overcast
4:56 AM 21.0 °F 10.6 °F 15.1 °F 78% 29.82 in 10.0 mi West 9.2 mph - N/A   Clear
5:56 AM 19.0 °F 11.1 °F 14.0 °F 81% 29.84 in 10.0 mi West 5.8 mph - N/A   Overcast
7:56 AM 21.0 °F 11.4 °F 16.0 °F 81% 29.86 in 8.0 mi West 8.1 mph - N/A   Overcast
8:56 AM 21.9 °F 13.4 °F 16.0 °F 78% 29.87 in 10.0 mi West 6.9 mph - N/A   Overcast
9:56 AM 23.0 °F 14.7 °F 17.1 °F 78% 29.88 in 10.0 mi West 6.9 mph - N/A   Overcast
10:56 AM 25.0 °F 17.1 °F 17.1 °F 72% 29.88 in 10.0 mi West 6.9 mph - 0.00 in   Overcast
11:56 AM 27.0 °F 14.7 °F 17.1 °F 66% 29.89 in 10.0 mi WNW 16.1 mph 20.7 mph 0.00 in Snow Light Snow
12:24 PM 26.6 °F 15.2 °F 17.6 °F 69% 29.85 in 9.0 mi West 13.8 mph - 0.01 in   Overcast
12:31 PM 26.6 °F 14.7 °F 17.6 °F 69% 29.86 in 10.0 mi West 15.0 mph 19.6 mph 0.01 in   Overcast
12:56 PM 27.0 °F 15.2 °F 16.0 °F 63% 29.90 in 10.0 mi West 15.0 mph 21.9 mph 0.02 in   Mostly Cloudy
1:56 PM 28.9 °F 16.9 °F 15.1 °F 56% 29.90 in 10.0 mi West 17.3 mph 20.7 mph 0.04 in   Mostly Cloudy
2:56 PM 28.0 °F 15.3 °F 14.0 °F 56% 29.91 in 10.0 mi WNW 18.4 mph - 0.04 in   Overcast
3:56 PM 28.0 °F 16.1 °F 12.0 °F 51% 29.92 in 10.0 mi WNW 16.1 mph - 0.01 in   Overcast
4:56 PM 28.0 °F 17.0 °F 12.0 °F 51% 29.94 in 10.0 mi NW 13.8 mph - N/A   Overcast
5:56 PM 28.0 °F 16.5 °F 10.0 °F 47% 29.96 in 10.0 mi NW 15.0 mph - N/A   Overcast
6:56 PM 27.0 °F 18.0 °F 9.0 °F 47% 29.99 in 10.0 mi NNW 9.2 mph - N/A   Mostly Cloudy
7:56 PM 26.1 °F 13.6 °F 12.9 °F 58% 30.03 in 10.0 mi North 16.1 mph 21.9 mph N/A   Overcast
8:56 PM 23.0 °F 12.4 °F 16.0 °F 74% 30.07 in 3.0 mi North 10.4 mph - 0.00 in Snow Light Snow
9:04 PM 21.2 °F 8.3 °F 15.8 °F 80% 30.03 in 2.5 mi North 13.8 mph 19.6 mph 0.00 in Snow Light Snow
9:13 PM 21.2 °F 8.9 °F 15.8 °F 80% 30.04 in 5.0 mi North 12.7 mph 20.7 mph 0.00 in Snow Light Snow
9:20 PM 21.2 °F 10.9 °F 12.2 °F 68% 30.04 in 9.0 mi North 9.2 mph 20.7 mph 0.00 in   Overcast
9:56 PM 21.0 °F 11.4 °F 12.9 °F 71% 30.10 in 10.0 mi NNW 8.1 mph 18.4 mph 0.00 in   Mostly Cloudy
10:56 PM 19.9 °F 10.1 °F 12.9 °F 74% 30.12 in 10.0 mi NW 8.1 mph - N/A   Overcast
11:30 PM 19.4 °F 11.5 °F 14.0 °F 80% 30.09 in 7.0 mi NW 5.8 mph - 0.00 in Snow Light Snow
11:56 PM 19.9 °F 11.1 °F 14.0 °F 78% 30.14 in 10.0 mi NNW 6.9 mph - 0.00 in   Overcast